Location: La Chapelle
(48.3135°N, 1.3085°W)
Time: 00:30:26
(UTC+00:00)

Cosmos 1844 Rocket - Pass Details

Date: 03 March 2021
Orbit: 826 x 843 km, 71.0° (Epoch: 14 April)

Event Time Altitude Azimuth Distance (km) Brightness Sun altitude
Rises 18:20:28 0° 335° (NNW) 3,377 6.1 -5.4°
Reaches altitude 10° 18:23:04 10° 343° (NNW) 2,439 5.3 -5.9°
Maximum altitude 18:28:18 40° 52° (NE) 1,211 3.2 -6.7°
Drops below altitude 10° 18:33:30 10° 122° (ESE) 2,427 4.6 -7.6°
Enters shadow 18:35:42 - 129° (SE) 3,220 5.3 -8.0°
